Location: Boncourt
(49.6160°N, 3.9448°E)
Time: 00:40:17
(UTC+00:00)

Cosmos 1606 - Pass Details

Date: 09 February 2023
Orbit: 488 x 510 km, 82.5° (Epoch: 21 March)

Event Time Altitude Azimuth Distance (km) Brightness Sun altitude
Rises 18:16:24 0° 350° (N) 2,651 6.4 -13.9°
Reaches altitude 10° 18:18:33 10° 350° (N) 1,758 5.4 -14.3°
Maximum altitude 18:22:25 88° 75° (ENE) 524 2.6 -14.9°
Drops below altitude 10° 18:26:14 10° 171° (S) 1,736 5.3 -15.5°
Sets 18:28:21 0° 171° (S) 2,614 6.2 -15.9°
